Regional Weather Roundup
Issued by NWS Midland/Odessa, TX

Skip options and go directly to product.
Home | Oldest Version | Previous Version | Current Version | All | Text Only | Save Text | Print | Product List | Glossary On

Skip product version selection by date and time.   
302
ASUS44 KMAF 021010
RWRMAF
MIDLAND AREA WEATHER ROUNDUP
NATIONAL WEATHER SERVICE MIDLAND TX
500 AM CDT SUN AUG 02 2015

...IN SOUTHWEST TEXAS AND SOUTHEAST NEW MEXICO...

CITY           SKY/WX    TMP DP  RH WIND       PRES   REMARKS
ALPINE         CLEAR     68  60  75 SW5       30.17S
ANDREWS        FAIR      70  64  82 S5        30.03F
ARTESIA        PTCLDY    72  63  73 SE3       30.03F
BIG SPRING     CLEAR     70  61  73 E6        30.03S
CARLSBAD       CLEAR     72  67  84 NW5       30.01F
DRYDEN           N/A     76  66  71 NW7       29.96F
FORT STOCKTON  CLEAR     77  60  55 S13       30.00F
GUAD PASS      CLEAR     71  57  61 S8        30.17F
HOBBS            N/A    N/A N/A N/A MISG        N/A
MARFA          PTCLDY    63  61  94 NW5       30.15F
MIDLAND AIRPK  CLEAR     78  63  58 CALM      30.02S
MIDLAND INTL   CLEAR     75  64  68 CALM      30.01F
ODESSA         CLEAR     74  61  63 NE6       30.03S
PECOS          CLEAR     73  56  56 NE8       29.97S
PRESIDIO       FAIR      82  61  49 MISG      29.99S
SEMINOLE       MOCLDY    71  60  67 CALM      30.04R
SNYDER         CLEAR     74  62  65 SE6       30.01S
WINK           CLEAR     76  59  55 SE7       29.98F
$$
...OTHER STATIONS IN TEXAS...

CITY           SKY/WX    TMP DP  RH WIND       PRES   REMARKS
ABILENE        PTCLDY    76  60  57 S6        29.98S
AMARILLO       PTCLDY    67  62  84 S8        30.05R
AUSTIN         CLEAR     69  66  90 CALM      29.93R
BROWNSVILLE    PTCLDY    78  73  84 CALM      29.87S
CORPUS CHRISTI MOCLDY    76  73  91 W7        29.88S
DALLAS FTW     CLOUDY    82  57  42 SE7       29.93F
DEL RIO        CLEAR     75  64  68 E6        29.92S
EL PASO        MOCLDY    78  58  49 E6        30.04F
HOUSTON INT    PTCLDY    74  69  85 CALM      29.90S
LUBBOCK        MOCLDY    68  65  90 E7        30.02F
SAN ANGELO     CLEAR     73  58  59 S6        29.97S
SAN ANTONIO    CLEAR     77  67  71 CALM      29.94S
WACO           PTCLDY    74  65  73 CALM      29.93S
WICHITA FALLS  NOT AVBL
$$
...OTHER LOCATIONS IN NEW MEXICO...

CITY           SKY/WX    TMP DP  RH WIND       PRES   REMARKS
ALAMAGORDO     MOCLDY    73  55  53 NE9       30.09F
ALBUQUERQUE    MOCLDY    66  61  84 SW6       30.17S
CANNON AFB     PTCLDY    69  62  79 NW3       30.08F
CLOVIS         PTCLDY    66  61  82 S5        30.08F
HOLLOMAN AFB   PTCLDY    74  56  52 NE9       30.06F
ROSWELL        PTCLDY    74  61  63 SW7       30.03F
RUIDOSO          N/A    N/A N/A N/A MISG        N/A
SANTA FE       CLOUDY    62  59  90 CALM      30.22F
TRUTH OR CONSE MOCLDY    71  60  68 CALM      30.13S
TUCUMCARI      PTCLDY    68  63  84 W5        30.04F
$$

USA.gov is the U.S. government's official web portal to all federal, state and local government web resources and services.